User: anonymous   Login
Location: Caltech
(34.1382°N, 118.1253°W)
Time: 08:10:05
(UTC-07:00)
Language:

SPOT 1/Viking Rocket - Orbit

View from above orbital plane
View from above orbital plane
View from above satellite
View from above satellite

Ground track
Ground track

The orbit data is extracted from the following two-line orbital elements,

1 16615U 86019C   15107.41562824  .00000315  00000-0  13556-3 0  9991
2 16615 098.7137 165.3670 0011371 208.0110 213.5489 14.31456552526213
Epoch (UTC): 17 April 2015 09:58:30
Eccentricity: 0.0011371
inclination: 98.7137°
perigee height: 779 km
apogee height: 795 km
right ascension of ascending node: 165.3670°
argument of perigee: 208.0110°
revolutions per day: 14.31456552
mean anomaly at epoch: 213.5489°
orbit number at epoch: 52621

The dashed part of the orbit path shows where the satellite is in the earth's shadow,  

DLR